This demonstration page uses our WeatherBlox Daily Observations layout. Learn more.

Hourly Observations for November 7, 2018

Temp ( °F °C ) Dew Point ( °F °C ) Humidity (%) Winds ( mph kmh ) Pressure ( in mb ) Visibility ( mi km ) Precip ( " mm )
12:15 am 00:15 Clear 26 -3.3 20 -6.6 78 78 N 8 13 30.3 1026 10 16.09344 0 0
12:35 am 00:35 Clear 25 -4.1 20 -6.8 82 82 NNE 9 15 30.3 1026 10 16.09344 0 0
12:55 am 00:55 Clear 26 -3.2 21 -6.3 79 79 NNE 9 15 30.33 1027 10 16.09344 0 0
1:15 am 01:15 Partly Cloudy 28 -2 21 -6.1 74 74 N 10 17 30.33 1027 10 16.09344 0 0
1:35 am 01:35 Clear 28 -2.1 21 -6.1 74 74 N 8 13 30.33 1027 10 16.09344 0 0
1:55 am 01:55 Partly Cloudy 28 -2.5 20 -6.5 74 74 N 8 13 30.33 1027 10 16.09344 0 0
2:15 am 02:15 Partly Cloudy 27 -2.8 21 -6.1 78 78 N 8 13 30.33 1027 10 16.09344 0 0
2:35 am 02:35 Partly Cloudy 27 -2.7 21 -6.1 78 78 N 9 15 30.36 1028 10 16.09344 0 0
2:55 am 02:55 Partly Cloudy 27 -2.9 20 -6.5 77 77 N 7 11 30.36 1028 10 16.09344 0 0
3:15 am 03:15 Clear 26 -3.5 20 -6.5 80 80 NNW 5 7 30.36 1028 10 16.09344 0 0
3:35 am 03:35 Clear 27 -3 21 -6.3 78 78 NNW 8 13 30.36 1028 10 16.09344 0 0
3:55 am 03:55 Partly Cloudy 26 -3.2 21 -6.3 79 79 N 8 13 30.36 1028 10 16.09344 0 0
4:15 am 04:15 Partly Cloudy 26 -3.2 20 -6.5 78 78 N 12 19 30.36 1028 10 16.09344 0 0
4:35 am 04:35 Partly Cloudy 26 -3.1 20 -6.5 78 78 N 13 20 30.36 1028 10 16.09344 0 0
4:55 am 04:55 Partly Cloudy 26 -3.2 20 -6.5 78 78 N 13 20 30.36 1028 10 16.09344 0 0
5:15 am 05:15 Partly Cloudy 26 -3.6 20 -6.6 80 80 N 14 22 30.39 1029 10 16.09344 0 0
5:35 am 05:35 Clear 25 -4 19 -7 80 80 N 13 20 30.39 1029 10 16.09344 0 0
5:55 am 05:55 Partly Cloudy 25 -4.1 20 -6.7 82 82 N 12 19 30.39 1029 10 16.09344 0 0
6:15 am 06:15 Cloudy 25 -3.8 20 -6.5 82 82 N 12 19 30.39 1029 10 16.09344 0 0
6:35 am 06:35 Cloudy 25 -3.7 20 -6.5 81 81 N 13 20 30.39 1029 10 16.09344 0 0
6:55 am 06:55 Cloudy 25 -3.7 20 -6.4 82 82 N 12 19 30.39 1029 10 16.09344 0 0
7:15 am 07:15 Cloudy 25 -3.8 21 -6.3 83 83 N 14 22 30.39 1029 10 16.09344 0 0
7:35 am 07:35 Cloudy 25 -3.7 21 -6.1 84 84 N 13 20 30.39 1029 10 16.09344 0 0
7:55 am 07:55 Cloudy 26 -3.5 21 -6.2 82 82 N 16 26 30.42 1030 10 16.09344 0 0
8:15 am 08:15 Cloudy 26 -3.5 22 -5.7 85 85 N 13 20 30.42 1030 10 16.09344 0 0
8:35 am 08:35 Cloudy 26 -3.1 22 -5.8 82 82 N 12 19 30.42 1030 10 16.09344 0 0
8:55 am 08:55 Mostly Cloudy 28 -2.3 21 -6.1 75 75 N 12 19 30.42 1030 10 16.09344 0 0
9:15 am 09:15 Mostly Cloudy 28 -2.2 21 -6.3 74 74 N 15 24 30.45 1031 10 16.09344 0 0
9:35 am 09:35 Cloudy 28 -2.3 20 -6.7 72 72 N 12 19 30.45 1031 10 16.09344 0 0
9:55 am 09:55 Partly Cloudy 28 -2 20 -6.9 69 69 N 9 15 30.45 1031 10 16.09344 0 0
10:15 am 10:15 Mostly Cloudy 30 -0.9 21 -6.2 68 68 N 10 17 30.45 1031 10 16.09344 0 0
10:35 am 10:35 Mostly Cloudy 31 -0.7 20 -6.4 66 66 NNW 9 15 30.45 1031 10 16.09344 0 0
10:55 am 10:55 Partly Cloudy 31 -0.3 21 -6.3 64 64 NNW 9 15 30.42 1030 10 16.09344 0 0
11:15 am 11:15 Sunny 32 0 21 -6.2 63 63 N 9 15 30.39 1029 10 16.09344 0 0
11:35 am 11:35 Sunny 33 0.5 21 -6.2 61 61 NNW 9 15 30.39 1029 10 16.09344 0 0
11:55 am 11:55 Sunny 33 0.8 21 -6 61 61 N 9 15 30.39 1029 10 16.09344 0 0
12:15 pm 12:15 Sunny 35 1.5 22 -5.8 59 59 N 10 17 30.39 1029 10 16.09344 0 0
12:35 pm 12:35 Sunny 35 1.4 21 -5.9 59 59 N 7 11 30.39 1029 10 16.09344 0 0
12:55 pm 12:55 Sunny 35 1.7 21 -5.9 57 57 NNW 7 11 30.36 1028 10 16.09344 0 0
1:15 pm 13:15 Sunny 36 2.3 22 -5.6 56 56 N 9 15 30.33 1027 10 16.09344 0 0
1:35 pm 13:35 Sunny 36 2.2 21 -6.2 54 54 N 3 6 30.33 1027 10 16.09344 0 0
1:55 pm 13:55 Mostly Cloudy 36 2.4 22 -5.7 56 56 NNE 6 9 30.33 1027 10 16.09344 0 0
2:15 pm 14:15 Cloudy 37 2.9 21 -6 52 52 NNW 3 6 30.33 1027 10 16.09344 0 0
2:35 pm 14:35 Partly Cloudy 37 3 21 -6 52 52 N 6 9 30.3 1026 10 16.09344 0 0
2:55 pm 14:55 Sunny 38 3.2 22 -5.8 52 52 NNE 6 9 30.3 1026 10 16.09344 0 0
3:15 pm 15:15 Sunny 37 2.9 21 -6.3 51 51 NNE 5 7 30.3 1026 10 16.09344 0 0
3:35 pm 15:35 Sunny 37 3 21 -6.3 51 51 NNE 7 11 30.3 1026 10 16.09344 0 0
3:55 pm 15:55 Sunny 37 2.8 20 -6.4 51 51 NNE 5 7 30.3 1026 10 16.09344 0 0
4:15 pm 16:15 Partly Cloudy 37 2.8 21 -6.1 52 52 NNE 6 9 30.3 1026 10 16.09344 0 0
4:35 pm 16:35 Partly Cloudy 37 2.6 21 -6 53 53 NE 5 7 30.3 1026 10 16.09344 0 0
4:55 pm 16:55 Mostly Cloudy 36 2.3 22 -5.7 56 56 NE 3 6 30.3 1026 10 16.09344 0 0
5:15 pm 17:15 Mostly Cloudy 35 1.5 22 -5.8 59 59 NE 5 7 30.33 1027 10 16.09344 0 0
5:35 pm 17:35 Partly Cloudy 33 0.8 21 -6 61 61 NE 5 7 30.36 1028 10 16.09344 0 0
5:55 pm 17:55 Mostly Cloudy 33 0.6 22 -5.7 63 63 Calm 30.36 1028 10 16.09344 0 0
6:15 pm 18:15 Partly Cloudy 33 0.7 22 -5.7 63 63 Calm 30.36 1028 10 16.09344 0 0
6:35 pm 18:35 Mostly Cloudy 33 0.8 21 -6 61 61 SE 3 6 30.36 1028 10 16.09344 0 0
6:55 pm 18:55 Cloudy 34 1.2 22 -5.5 61 61 S 3 6 30.36 1028 10 16.09344 0 0
7:15 pm 19:15 Cloudy 34 1.2 23 -4.9 64 64 Calm 30.36 1028 10 16.09344 0 0
7:35 pm 19:35 Cloudy 34 1.1 24 -4.3 68 68 Calm 30.36 1028 10 16.09344 0 0
7:55 pm 19:55 Cloudy 34 1 25 -4.1 69 69 Calm 30.39 1029 10 16.09344 0 0
8:15 pm 20:15 Cloudy 34 1 24 -4.7 66 66 NE 3 6 30.36 1028 10 16.09344 0 0
8:35 pm 20:35 Cloudy 34 1.2 24 -4.7 65 65 Calm 30.39 1029 10 16.09344 0 0
8:55 pm 20:55 Cloudy with Light Snow 33 0.3 25 -3.7 75 75 ENE 7 11 30.39 1029 7 11.265408 0 0
9:15 pm 21:15 Cloudy 32 0.1 26 -3.5 77 77 ENE 3 6 30.39 1029 10 16.09344 0 0
9:35 pm 21:35 Cloudy 32 0.2 26 -3.5 76 76 Calm 30.39 1029 10 16.09344 0 0
9:55 pm 21:55 Cloudy 33 0.5 26 -3.5 75 75 ENE 3 6 30.39 1029 10 16.09344 0 0
10:15 pm 22:15 Cloudy 33 0.7 26 -3.5 74 74 Calm 30.39 1029 10 16.09344 0 0
10:35 pm 22:35 Cloudy 33 0.7 26 -3.1 76 76 Calm 30.39 1029 10 16.09344 0 0
10:55 pm 22:55 Cloudy with Light Snow 33 0.4 26 -3.5 75 75 ESE 3 6 30.39 1029 4 6.437376 0 0
11:15 pm 23:15 Cloudy with Snow 31 -0.8 28 -2.5 88 88 E 6 9 30.39 1029 0.75 1.207008 0 0
11:35 pm 23:35 Cloudy with Snow 30 -1.2 29 -1.5 98 98 ESE 5 7 30.36 1028 0.5 0.804672 0.01 0.254
11:55 pm 23:55 Cloudy with Snow 29 -1.5 29 -1.5 100 100 ESE 5 7 30.39 1029 0.75 1.207008 0.03 0.762

Powered by AerisWeather